Date String (YYYY-MM-DD hh:mm:ss) UTC,Instrument flags,Ambient pressure (hPa),Sample flow (lpm),Bypass flow (lpm),Sample temperature (°C),Ambient temperature (°C),ASC tube jacket temperature (°C),LED temperature (°C),Box temperature (°C),Sample RH (%),Span deviation,Mass concentration (μg/m³),Mass concentration (μg/m³),Mass concentration (μg/m³)
DateTimeUTC,F1_M11,P_M11,Q1_M11,Q2_M11,T1_M11,T2_M11,T3_M11,T4_M11,T5_M11,U1_M11,ZSPAN_M11,X0_M11,X2_M11,X1_M11
2023-05-19 17:00:00,,0839.5,4.99,0.00,27.3,25.7,00.0,35.7,28.9,27.9,0001.7,0135.04,0099.69,0093.52
2023-05-19 17:01:00,,0839.5,5.01,0.00,27.3,25.7,00.0,35.7,28.9,27.9,0001.6,0135.68,0100.05,0093.84
2023-05-19 17:02:00,,0839.5,5.01,0.00,27.3,25.7,00.0,35.7,29.0,27.9,0001.6,0136.61,0100.39,0094.08
2023-05-19 17:03:00,,0839.5,4.99,0.00,27.3,25.7,00.0,35.7,28.9,27.9,0001.7,0136.77,0100.61,0094.25
2023-05-19 17:04:00,,0839.5,4.98,0.00,27.3,25.7,00.0,35.7,28.9,28.0,0001.6,0136.73,0100.73,0094.41
2023-05-19 17:05:00,,0839.5,5.00,0.00,27.3,25.7,00.0,35.7,28.9,28.0,0001.5,0138.26,0101.03,0094.56
2023-05-19 17:06:00,,0839.5,5.00,0.00,27.3,25.7,00.0,35.7,28.9,28.2,0001.5,0138.92,0101.11,0094.61
2023-05-19 17:07:00,,0839.5,5.00,0.00,27.3,25.7,00.0,35.7,28.9,28.3,0001.4,0138.64,0101.17,0094.68
2023-05-19 17:08:00,,0839.5,5.00,0.00,27.3,25.7,00.0,35.7,28.9,28.3,0001.3,0139.14,0101.36,0094.78
2023-05-19 17:09:00,,0839.5,5.00,0.00,27.3,25.7,00.0,35.7,28.9,28.1,0001.2,0139.92,0101.61,0095.00
2023-05-19 17:10:00,,0839.5,5.00,0.00,27.3,25.7,00.0,35.7,28.9,28.1,0001.3,0140.22,0101.85,0095.22
2023-05-19 17:11:00,,0839.5,5.00,0.00,27.3,25.7,00.0,35.7,28.9,28.3,0001.2,0140.33,0102.15,0095.47
2023-05-19 17:12:00,,0839.6,5.01,0.00,27.3,25.7,00.0,35.7,28.9,28.4,0001.2,0140.70,0102.41,0095.67
2023-05-19 17:13:00,,0839.5,5.00,0.00,27.3,25.7,00.0,35.7,28.9,28.3,0001.1,0140.51,0102.55,0095.82
2023-05-19 17:14:00,,0839.5,5.01,0.00,27.3,25.7,00.0,35.7,28.9,28.2,0001.0,0140.76,0102.70,0095.92
2023-05-19 17:15:00,,0839.5,4.99,0.00,27.3,25.7,00.0,35.7,28.9,28.4,0001.1,0141.15,0102.91,0096.07
2023-05-19 17:16:00,,0839.5,5.00,0.00,27.3,25.7,00.0,35.7,28.9,28.5,0001.1,0140.41,0102.85,0096.16
2023-05-19 17:17:00,,0839.5,4.99,0.00,27.3,25.7,00.0,35.7,28.9,28.5,0001.3,0139.21,0102.79,0096.21
2023-05-19 17:18:00,,0839.5,4.99,0.00,27.3,25.7,00.0,35.7,28.9,28.5,0001.3,0139.36,0102.87,0096.29
2023-05-19 17:19:00,,0839.6,5.00,0.00,27.3,25.7,00.0,35.7,28.9,28.4,0001.3,0139.90,0102.97,0096.39
2023-05-19 17:20:00,,0839.6,5.01,0.00,27.3,25.7,00.0,35.7,28.9,28.4,0001.5,0140.00,0103.01,0096.46
2023-05-19 17:21:00,,0839.6,4.99,0.00,27.3,25.7,00.0,35.6,28.9,28.7,0001.6,0139.75,0102.98,0096.47
2023-05-19 17:22:00,,0839.6,4.99,0.00,27.3,25.7,00.0,35.7,29.0,28.4,0001.5,0139.73,0102.87,0096.48
2023-05-19 17:23:00,,0839.5,5.00,0.00,27.3,25.7,00.0,35.6,29.0,28.2,0001.5,0139.56,0102.82,0096.52
2023-05-19 17:24:00,,0839.5,5.01,0.00,27.3,25.7,00.0,35.6,29.0,28.1,0001.5,0140.07,0102.80,0096.58
2023-05-19 17:25:00,,0839.5,5.00,0.00,27.3,25.7,00.0,35.7,29.0,28.1,0001.5,0140.22,0102.75,0096.66
2023-05-19 17:26:00,,0839.5,5.00,0.00,27.3,25.7,00.0,35.6,28.9,28.2,0001.5,0140.38,0102.73,0096.69
2023-05-19 17:27:00,,0839.5,5.01,0.00,27.3,25.7,00.0,35.6,28.9,28.4,0001.5,0140.30,0102.74,0096.75
2023-05-19 17:28:00,,0839.5,5.00,0.00,27.3,25.7,00.0,35.6,28.9,28.3,0001.5,0140.91,0102.81,0096.77
2023-05-19 17:29:00,,0839.5,5.00,0.00,27.3,25.7,00.0,35.6,28.9,28.1,0001.3,0141.74,0102.94,0096.89
2023-05-19 17:30:00,,0839.5,5.00,0.00,27.3,25.7,00.0,35.6,28.9,28.0,0001.4,0141.65,0103.10,0097.07
2023-05-19 17:31:00,,0839.5,5.00,0.00,27.3,25.7,00.0,35.6,28.9,28.1,0001.4,0141.42,0103.16,0097.17
2023-05-19 17:32:00,,0839.5,5.00,0.00,27.3,25.7,00.0,35.6,28.9,28.1,0001.4,0141.82,0103.26,0097.28
2023-05-19 17:33:00,,0839.6,5.00,0.00,27.3,25.7,00.0,35.6,28.9,28.2,0001.5,0142.15,0103.42,0097.38
2023-05-19 17:34:00,,0839.6,5.00,0.00,27.3,25.7,00.0,35.6,28.9,28.0,0001.7,0142.62,0103.56,0097.49
2023-05-19 17:35:00,,0839.5,5.00,0.00,27.3,25.6,00.0,35.6,28.9,28.1,0001.8,0142.65,0103.67,0097.60
2023-05-19 17:36:00,,0839.5,5.01,0.00,27.3,25.6,00.0,35.6,28.9,28.1,0001.9,0142.17,0103.76,0097.66
2023-05-19 17:37:00,,0839.5,5.00,0.00,27.3,25.6,00.0,35.6,28.9,28.3,0001.9,0143.02,0103.95,0097.82
2023-05-19 17:38:00,,0839.6,4.99,0.00,27.3,25.6,00.0,35.6,28.9,28.4,0001.8,0143.36,0104.10,0097.94
2023-05-19 17:39:00,,0839.6,4.99,0.00,27.3,25.6,00.0,35.6,28.9,28.3,0001.9,0143.53,0104.25,0098.06
2023-05-19 17:40:00,,0839.6,5.00,0.00,27.3,25.6,00.0,35.6,28.9,28.1,0001.9,0142.49,0104.22,0098.03
2023-05-19 17:41:00,,0839.6,4.99,0.00,27.3,25.6,00.0,35.6,28.9,28.2,0002.0,0142.51,0104.15,0097.92
2023-05-19 17:42:00,,0839.6,5.01,0.00,27.3,25.6,00.0,35.6,28.9,28.0,0002.0,0142.54,0104.21,0097.95
2023-05-19 17:43:00,,0839.6,4.99,0.00,27.3,25.7,00.0,35.6,28.9,28.0,0002.1,0142.69,0104.41,0098.04
2023-05-19 17:44:00,,0839.6,5.01,0.00,27.3,25.7,00.0,35.6,28.9,28.0,0002.1,0142.73,0104.59,0098.16
2023-05-19 17:45:00,,0839.6,5.00,0.00,27.3,25.7,00.0,35.6,28.9,28.0,0002.0,0142.61,0104.67,0098.21
2023-05-19 17:46:00,,0839.6,5.00,0.00,27.3,25.7,00.0,35.6,28.9,27.9,0001.9,0142.58,0104.75,0098.22
2023-05-19 17:47:00,,0839.6,5.00,0.00,27.3,25.7,00.0,35.6,28.9,27.9,0001.7,0142.93,0104.83,0098.25
2023-05-19 17:48:00,,0839.6,4.99,0.00,27.3,25.7,00.0,35.6,28.9,28.0,0001.7,0142.37,0104.77,0098.25
2023-05-19 17:49:00,,0839.6,4.99,0.00,27.3,25.7,00.0,35.6,28.9,28.2,0001.9,0142.15,0104.82,0098.28
2023-05-19 17:50:00,,0839.6,5.00,0.00,27.3,25.7,00.0,35.6,28.9,28.2,0001.9,0142.50,0105.01,0098.40
2023-05-19 17:51:00,,0839.6,5.00,0.00,27.3,25.7,00.0,35.6,28.9,28.4,0001.8,0143.24,0105.31,0098.58
2023-05-19 17:52:00,,0839.6,5.01,0.00,27.3,25.7,00.0,35.6,28.9,28.3,0001.8,0143.94,0105.69,0098.86
2023-05-19 17:53:00,,0839.6,5.00,0.00,27.3,25.7,00.0,35.6,28.9,28.4,0001.8,0144.37,0105.93,0099.09
2023-05-19 17:54:00,,0839.6,5.00,0.00,27.3,25.7,00.0,35.6,28.9,28.4,0001.7,0144.86,0106.03,0099.16
2023-05-19 17:55:00,,0839.6,4.99,0.00,27.3,25.7,00.0,35.6,28.9,28.0,0001.7,0145.30,0105.95,0099.08
2023-05-19 17:56:00,,0839.6,5.01,0.00,27.3,25.7,00.0,35.6,28.9,27.8,0001.7,0145.22,0105.92,0099.06
2023-05-19 17:57:00,,0839.6,5.01,0.00,27.3,25.7,00.0,35.6,28.9,27.6,0001.9,0145.35,0106.03,0099.12
2023-05-19 17:58:00,,0839.6,5.01,0.00,27.3,25.7,00.0,35.6,29.0,27.6,0002.1,0145.45,0106.11,0099.20
2023-05-19 17:59:00,,0839.6,5.00,0.00,27.3,25.7,00.0,35.6,29.0,28.0,0002.2,0145.37,0106.10,0099.15
